Zurück zum Katalog

STARLINK-35845

AktivKommunikationVLEO
NORAD 66366·PAYLOAD·🇺🇸 United States

Gestartet Nov 6, 2025 von Vandenberg Space Force Base

Loading…

Nächste Überflüge (nächste 24 Stunden)

TLE

AktuellSource: CelesTrak SupGP

Epoche: Sep 15, 2026, 02:36 UTC

1 66366C 25254U   26258.10881944 -.00027802  00000+0 -89472-3 0  2584
2 66366  53.1571  71.4501 0001297  80.4212 259.8493 15.31691408    14

Verfolge STARLINK-35845 in Echtzeit mit AllMySat

Download on the App Store